Home   Weather   Stavanger   Past weeks
Flag for Norway

Past Weather in Stavanger, Norway — Yesterday and Last 2 Weeks

Now
36 °F

Clear.


Feels Like: 25 °F
Forecast: 36 / 34 °F
Wind: 20 mph from Southeast

Location: Stavanger / Sola

Current Time: Jan 23, 2019 at 12:15:01 am

Latest Report: Jan 22, 2019 at 11:50 pm


Visibility: 10 mi

Pressure: 29.50 "Hg

Humidity: 60%

Dew Point: 23 °F

Location of StavangerLocation

Past Weather in Stavanger — Graph

°F

Stavanger Temperature Yesterday

Maximum temperature yesterday: 37 °F (at 9:20 am)
Minimum temperature yesterday: 36 °F (at 12:20 am)
Average temperature yesterday: 36 °F

High & Low Weather Summary for the Past Weeks

 TemperatureHumidityPressure
High46 °F (Jan 10, 8:50 pm)100% (Jan 7, 11:20 pm)30.30 "Hg (Jan 7, 11:20 pm)
Low25 °F (Jan 18, 10:20 am)48% (Jan 13, 10:20 pm)29.06 "Hg (Jan 13, 10:20 am)
Average37 °F81%29.74 "Hg
* Reported Jan 7 11:20 pm — Jan 22 11:20 pm, Stavanger. Weather by CustomWeather, © 2019

Note: Actual official high and low records may vary slightly from our data, if they occured in-between our weather recording intervals... More about our weather records

Advertising

Stavanger Weather History for the Previous 24 Hours

Scroll right to see more
 ConditionsComfort  
Time TempWeatherWind HumidityBarometerVisibility
11:20 pm
Tue, Jan 22
36 °FClear.21 mph60%29.50 "Hg10 mi
10:50 pm36 °FClear.22 mph60%29.50 "Hg10 mi
10:20 pm36 °FPassing clouds.22 mph60%29.47 "HgN/A
9:20 pm36 °FPartly cloudy.22 mph65%29.47 "HgN/A
8:50 pm36 °FPartly cloudy.22 mph65%29.47 "HgN/A
8:20 pm36 °FClear.17 mph65%29.47 "Hg10 mi
7:50 pm36 °FClear.18 mph65%29.47 "Hg10 mi
7:20 pm36 °FClear.18 mph65%29.47 "Hg10 mi
6:50 pm36 °FPassing clouds.21 mph65%29.47 "HgN/A
6:20 pm37 °FPassing clouds.21 mph65%29.47 "HgN/A
5:50 pm37 °FPassing clouds.22 mph65%29.47 "HgN/A
5:20 pm37 °FPassing clouds.22 mph70%29.47 "HgN/A
4:50 pm37 °FPassing clouds.23 mph70%29.47 "HgN/A
4:20 pm37 °FBroken clouds.22 mph70%29.47 "HgN/A
3:50 pm37 °FScattered showers. Broken clouds.21 mph70%29.50 "HgN/A
3:20 pm37 °FScattered showers. Broken clouds.22 mph75%29.50 "HgN/A
2:50 pm37 °FLight snow. Scattered clouds.24 mph75%29.50 "HgN/A
2:20 pm37 °FLight snow. Partly sunny.22 mph75%29.50 "HgN/A
1:50 pm37 °FLight snow. Partly sunny.21 mph75%29.50 "HgN/A
12:50 pm37 °FPartly sunny.22 mph70%29.53 "HgN/A
12:20 pm37 °FPartly sunny.17 mph70%29.53 "HgN/A
11:50 am37 °FPartly sunny.20 mph70%29.56 "HgN/A
11:20 am37 °FScattered clouds.18 mph70%29.56 "HgN/A
10:50 am37 °FPartly sunny.17 mph70%29.56 "HgN/A
10:20 am37 °FPartly sunny.18 mph70%29.56 "HgN/A
9:50 am37 °FPartly sunny.20 mph70%29.56 "HgN/A
9:20 am37 °FPartly sunny.17 mph70%29.59 "HgN/A
8:50 am36 °FPassing clouds.17 mph75%29.59 "HgN/A
8:20 am36 °FPassing clouds.16 mph75%29.59 "HgN/A
7:50 am36 °FPassing clouds.17 mph75%29.62 "HgN/A
7:20 am36 °FPassing clouds.20 mph81%29.62 "HgN/A
6:50 am36 °FPassing clouds.17 mph81%29.62 "HgN/A
6:20 am36 °FPassing clouds.20 mph81%29.65 "HgN/A
5:50 am36 °FPassing clouds.17 mph81%29.65 "HgN/A
5:20 am36 °FClear.17 mph81%29.65 "Hg10 mi
4:50 am36 °FPartly cloudy.16 mph81%29.68 "HgN/A
3:50 am36 °FPassing clouds.16 mph81%29.71 "HgN/A
2:50 am36 °FPassing clouds.14 mph75%29.74 "HgN/A
1:50 am36 °FLight rain. Passing clouds.15 mph81%29.77 "HgN/A
12:50 am36 °FClear.15 mph81%29.77 "Hg10 mi
12:20 am36 °FClear.15 mph81%29.77 "Hg10 mi
Weather by CustomWeather, © 2019

See weather overview